[Iaude] MPEC M48: 2022 MB1 [a=1.95,e=0.46,i=4.9,H=26.5]

mpec at marsden.cfa.harvard.edu mpec at marsden.cfa.harvard.edu
Thu Jun 23 07:22:57 EDT 2022


M.P.E.C. 2022-M48                                 Issued 2022 June 23, 11:21 UT

     The Minor Planet Electronic Circulars contain information on unusual
         minor planets and routine data on comets.  They are published
    on behalf of Division F of the International Astronomical Union by the
          Minor Planet Center, Smithsonian Astrophysical Observatory,
                          Cambridge, MA 02138, U.S.A.

             Prepared using the Tamkin Foundation Computer Network

                              MPC at CFA.HARVARD.EDU
            URL https://www.minorplanetcenter.net/    ISSN 1523-6714

                                    2022 MB1                                    


Observations:
     K22M01B* C2022 06 20.35545416 53 36.794-09 07 53.02         21.33wUEM048F52
     K22M01B  C2022 06 20.36994016 53 42.396-09 08 53.33         21.70wUEM048F52
     K22M01B  C2022 06 20.38278816 53 47.397-09 09 46.30         21.60wUEM048F52
     K22M01B  C2022 06 20.39563016 53 52.382-09 10 39.63         21.88wUEM048F52
     K22M01B  C2022 06 20.49671716 54 32.268-09 17 37.50         22.18GVEM048F52
     K22M01B  C2022 06 20.49752016 54 32.604-09 17 40.68         21.38GVEM048F52
     K22M01B  C2022 06 20.49832416 54 32.904-09 17 44.12         21.67GVEM048F52
     K22M01B  C2022 06 20.49912616 54 33.219-09 17 46.83         21.82GVEM048F52
     K22M01B KC2022 06 21.23831417 00 16.68 -10 11 33.2          22.1 VuEM048H21
     K22M01B KC2022 06 21.24266217 00 18.53 -10 11 51.8          22.2 VuEM048H21
     K22M01B KC2022 06 21.24701117 00 20.44 -10 12 10.9          22.0 VuEM048H21
     K22M01B ^C2022 06 21.29325617 00 49.313-10 14 58.61         21.41GVEM048568
     K22M01B ^C2022 06 21.29423617 00 49.740-10 15 03.07         21.33GVEM048568
     K22M01B ^C2022 06 21.29521417 00 50.166-10 15 07.55         21.36GVEM048568
     K22M01B ^C2022 06 21.29624117 00 50.608-10 15 12.13         21.52GVEM048568
     K22M01B ^C2022 06 21.29721717 00 51.032-10 15 16.54         21.62GVEM048568
     K22M01B ^C2022 06 21.29819817 00 51.469-10 15 21.12         21.44GVEM048568

Observer details:
568 Mauna Kea.  Observers R. Wainscoat, H. Januszewski, T. Burdullis.
    Measurers R. Weryk, R. Wainscoat.  3.6-m Canada-France-Hawaii Telescope +
    CCD.
F52 Pan-STARRS 2, Haleakala.  Observers J. Bulger, T. Lowe, A. Schultz, I.
    Smith, K. Chambers, T. Dukes.  Measurers K. Chambers, S. Chastel, T. de
    Boer, J. Fairlamb, H. Gao, M. Huber, C.-C. Lin, E. Magnier, Y.
    Ramanjooloo, R. Wainscoat, R. Weryk.  1.8-m Ritchey-Chretien + CCD.
H21 Astronomical Research Observatory, Westfield.  Observer R. Holmes.
    Measurers T. Linder, R. Holmes, L. Horn.  1.3-m f/4.0 astrograph + CCD.

Orbital elements:
2022 MB1                                                 Earth MOID = 0.0478 AU
Epoch 2022 Aug. 9.0 TT = JDT 2459800.5                  Veres                   
M  11.76268              (2000.0)            P               Q                  
n   0.36063256     Peri.  188.50631     +0.27533618     +0.95757131             
a   1.9547569      Node    97.50802     -0.87689030     +0.28645507             
e   0.4560547      Incl.    4.92586     -0.39402206     +0.03163365             
P   2.73           H   26.59          G   0.15           U   8                  
Residuals in seconds of arc
220620 F52  0.2+  0.2-    220620 F52  0.0   0.3-    220621 568  0.0   0.0
220620 F52  0.2-  0.2-    220620 F52  0.1-  0.3+    220621 568  0.0   0.0
220620 F52  0.0   0.3+    220621 H21  0.1+  0.5-    220621 568  0.0   0.0
220620 F52  0.1-  0.2+    220621 H21  0.3-  0.2+    220621 568  0.0   0.1+
220620 F52  0.2+  0.2-    220621 H21  0.1+  0.2+    220621 568  0.1+  0.1-
220620 F52  0.4+  0.1-    220621 568  0.0   0.0

Ephemeris:
2022 MB1                 a,e,i = 1.95, 0.46, 5                   q = 1.0633
Date    TT    R. A. (2000) Decl.     Delta      r    Elong.  Phase     V
2022 05 24    15 37 24.1 +01 49 21   0.1701  1.1708   156.7    20.0    24.1
...
2022 06 08    15 58 48.8 -00 29 55   0.1086  1.1126   152.8    24.7    23.1
...
2022 06 16    16 27 16.1 -04 55 46   0.08103 1.0899   155.2    23.0    22.4
...
2022 06 22    17 06 32.7 -11 07 46   0.06380 1.0772   162.1    16.9    21.7
2022 06 23    17 15 26.3 -12 28 59   0.06136 1.0754   163.9    15.2    21.5
2022 06 24    17 25 10.5 -13 55 55   0.05909 1.0738   165.9    13.4    21.4
...
2022 06 30    18 44 17.0 -24 00 37   0.04985 1.0665   177.6     2.3    20.5
...
2022 07 08    21 07 41.0 -33 18 27   0.05270 1.0633   151.5    27.2    21.6
...
2022 07 23    23 38 57.4 -31 01 25   0.08961 1.0777   131.7    44.8    23.2

M. P. C. Staff               (C) Copyright 2022 MPC           M.P.E.C. 2022-M48




More information about the Iaude mailing list